Miscellaneous Local Product
Issued by NWS Hastings, NE

Home | Current Version | Previous Version | Text Only | Print | Product List | Glossary Off
Versions: 1 2 3 4 5 6 7 8 9 10 11 12 13 14 15 16 17 18 19 20 21 22 23 24 25 26 27 28 29 30 31 32 33 34 35 36 37 38 39 40 41 42 43 44 45 46 47 48 49 50

000
AXUS43 KGID 021602
MISGRI

GID CWA HOURLY WEATHER ROUNDUP
NATIONAL WEATHER SERVICE HASTINGS NE
1000 AM CST MON MAR 02 2015

NOTE: "FAIR" INDICATES FEW OR NO CLOUDS BELOW 12,000 FEET WITH NO
SIGNIFICANT WEATHER AND/OR OBSTRUCTIONS TO VISIBILITY.

...SOUTH CENTRAL NEBRASKA...

CITY           SKY/WX    TMP DP  RH WIND       PRES   REMARKS
GRAND ISLAND   CLOUDY    32  23  69 S12       30.35F WCI  23
HASTINGS       MOSUNNY   34  20  56 S15G23    30.33F WCI  24
KEARNEY        MOSUNNY   34  19  55 S22G28    30.29F WCI  22
ORD            CLOUDY    32  16  51 S12G23    30.27F WCI  23
YORK           CLOUDY    32  25  74 S9        30.38F WCI  24
AURORA         CLOUDY    33  24  71 S12       30.36F WCI  24
LEXINGTON      MOSUNNY   33  20  57 S25       30.24F WCI  21
HOLDREGE       MOSUNNY   32  19  57 S21G29    30.28F WCI  20
HEBRON         PTSUNNY   34  22  60 S12       30.40F WCI  26

...NEBRASKA PANHANDLE...

CITY           SKY/WX    TMP DP  RH WIND       PRES   REMARKS
CHADRON        MOSUNNY   36  21  54 S20G28    29.94F WCI  25
ALLIANCE       CLOUDY    31  17  56 S26G36    30.00F WCI  17
SCOTTSBLUFF    PTSUNNY   34  21  59 S20       29.98F WCI  23
SIDNEY         CLOUDY    29  19  66 S20G26    30.03F WCI  16

...WESTERN AND NORTH CENTRAL NEBRASKA...

CITY           SKY/WX    TMP DP  RH WIND       PRES   REMARKS
VALENTINE      CLOUDY    31  14  49 S22       30.13F WCI  18
AINSWORTH      CLOUDY    30  15  53 S16       30.18F WCI  18
ONEILL         CLOUDY    30  15  52 S20G25    30.28F WCI  17
BROKEN BOW     CLOUDY    33  19  56 S21G36    30.23F WCI  21
IMPERIAL         N/A     30  18  60 S20G30    30.14F WCI  17
NORTH PLATTE   SUNNY     34  16  47 S18G31    30.18F WCI  23
MCCOOK         CLOUDY    32  19  58 S20G25    30.23F WCI  20

...EASTERN NEBRASKA...

CITY           SKY/WX    TMP DP  RH WIND       PRES   REMARKS
NORFOLK        CLOUDY    29  15  56 SE14      30.35F WCI  18
SO SIOUX CITY  CLOUDY    27  17  66 SE14      30.46S WCI  16
TEKAMAH        CLOUDY    29  17  61 SE14      30.46F WCI  18
COLUMBUS       CLOUDY    30  12  47 SE12      30.40F WCI  21
ALBION         CLOUDY    29  15  55 SE13      30.34F WCI  19
OMAHA EPPLEY   CLOUDY    29  17  61 SE13      30.46F WCI  19
MILLARD        CLOUDY    29  17  58 SE7       30.45S WCI  22
LINCOLN        CLOUDY    32  19  58 SE8       30.44S WCI  25
NEBRASKA CITY  CLOUDY    30  17  57 SE8       30.44F WCI  23
BEATRICE       CLOUDY    34  25  70 SE8       30.42F WCI  27
FALLS CITY     CLOUDY    33  24  69 SE10      30.46S WCI  25

...NORTHERN KANSAS...

CITY           SKY/WX    TMP DP  RH WIND       PRES   REMARKS
GOODLAND       CLOUDY    27  22  81 S21G28    30.15F WCI  13
HILL CITY      CLOUDY    31  19  61 S16G22    30.30F WCI  20
NORTON         CLOUDY    28  18  64 SE15G23   30.26  WCI  17
PHILLIPSBURG   CLOUDY    34  21  60 SE18      30.33F WCI  23
SMITH CENTER   PTSUNNY   32  21  64 S18       30.36F WCI  20
BELOIT         PTSUNNY   34  19  55 SE10      30.39F WCI  26
HAYS           PTSUNNY   30  18  59 S20       30.33F WCI  18
RUSSELL        PTSUNNY   32  22  66 S18       30.33F WCI  20
CONCORDIA      CLOUDY    33  20  58 S13       30.40F WCI  24
SALINA         PTSUNNY   34  23  64 S17       30.42F WCI  23
TOPEKA         MOSUNNY   34  24  67 SE7       30.48F WCI  28



USA.gov is the U.S. government's official web portal to all federal, state and local government web resources and services.